When you browse on this site, cookies collect data to enhance your experience and personalize the content and advertising you see.
Visit our Privacy Policy to learn more. By continuing to use the site, you agree to this use of cookies and data.
  • In Hungary
  • List of Countries
  • For 7 days
  • Water Temperature
  • Satellite Maps
  • Weather Map
  • News
  • Weather Widgets
  • user-avatar
    Login

    Hourly Weather Calw

    Today, 17 February, Sunday

    Time Temperature Precipitation Wind Pressure Humidity
    00:00 +7°C° 0 mm 1 mps 730 mmHg 64%
    01:00 +6°C° 0 mm 1 mps 730 mmHg 61%
    02:00 +6°C° 0 mm 1 mps 730 mmHg 60%
    03:00 +5°C° 0 mm 1 mps 730 mmHg 59%
    04:00 +5°C° 0 mm 1 mps 729 mmHg 57%
    05:00 +5°C° 0 mm 1 mps 729 mmHg 58%
    06:00 +5°C° 0 mm 1 mps 729 mmHg 58%
    07:00 +5°C° 0 mm 1 mps 729 mmHg 58%
    08:00 +6°C° 0 mm 1 mps 729 mmHg 57%
    09:00 +8°C° 0 mm 1 mps 729 mmHg 56%
    10:00 +9°C° 0 mm 1 mps 729 mmHg 55%
    11:00 +11°C° 0 mm 1 mps 729 mmHg 51%
    12:00 +13°C° 0 mm 1 mps 729 mmHg 47%
    13:00 +15°C° 0 mm 1 mps 729 mmHg 42%
    14:00 +15°C° 0 mm 1 mps 729 mmHg 46%
    15:00 +15°C° 0 mm 1 mps 728 mmHg 50%
    16:00 +15°C° 0 mm 1 mps 728 mmHg 53%
    17:00 +13°C° 0 mm 1 mps 728 mmHg 58%
    18:00 +11°C° 0 mm 1 mps 728 mmHg 63%
    19:00 +9°C° 0 mm 1 mps 727 mmHg 68%
    20:00 +8°C° 0 mm 1 mps 727 mmHg 66%
    21:00 +6°C° 0 mm 2 mps 727 mmHg 63%
    22:00 +6°C° 0 mm 2 mps 727 mmHg 61%
    23:00 +7°C° 0 mm 1 mps 727 mmHg 59%

    Tomorrow, 18 February, Monday

    Time Temperature Precipitation Wind Pressure Humidity
    00:00 +6°C° 0 mm 1 mps 727 mmHg 56%
    01:00 +6°C° 0 mm 1 mps 727 mmHg 54%
    02:00 +6°C° 0 mm 1 mps 727 mmHg 54%
    03:00 +5°C° 0 mm 1 mps 727 mmHg 54%
    04:00 +5°C° 0 mm 1 mps 727 mmHg 54%
    05:00 +5°C° 0 mm 1 mps 727 mmHg 55%
    06:00 +5°C° 0 mm 1 mps 727 mmHg 56%
    07:00 +5°C° 0 mm 1 mps 727 mmHg 56%
    08:00 +6°C° 0 mm 1 mps 727 mmHg 55%
    09:00 +8°C° 0 mm 1 mps 727 mmHg 54%
    10:00 +9°C° 0 mm 1 mps 727 mmHg 53%
    11:00 +11°C° 0 mm 1 mps 727 mmHg 49%
    12:00 +12°C° 0 mm 1 mps 726 mmHg 45%
    13:00 +14°C° 0 mm 1 mps 726 mmHg 41%
    14:00 +14°C° 0 mm 1 mps 726 mmHg 44%
    15:00 +14°C° 0 mm 1 mps 725 mmHg 46%
    16:00 +14°C° 0 mm 1 mps 725 mmHg 49%
    17:00 +12°C° 0 mm 1 mps 725 mmHg 56%
    18:00 +10°C° 0 mm 1 mps 725 mmHg 62%
    19:00 +7°C° 0 mm 2 mps 725 mmHg 69%
    20:00 +6°C° 0 mm 2 mps 725 mmHg 70%
    21:00 +6°C° 0 mm 2 mps 725 mmHg 70%
    22:00 +5°C° 0 mm 2 mps 725 mmHg 71%
    23:00 +5°C° 0 mm 2 mps 725 mmHg 70%

    Day after tomorrow, 19 February, Tuesday

    Time Temperature Precipitation Wind Pressure Humidity
    00:00 +4°C° 0 mm 2 mps 725 mmHg 69%
    01:00 +4°C° 0 mm 2 mps 725 mmHg 67%
    02:00 +4°C° 0 mm 2 mps 725 mmHg 69%
    03:00 +4°C° 0 mm 2 mps 725 mmHg 71%
    04:00 +3°C° 0 mm 2 mps 725 mmHg 72%
    05:00 +3°C° 0 mm 2 mps 725 mmHg 74%
    06:00 +3°C° 0 mm 2 mps 725 mmHg 75%
    07:00 +3°C° 0 mm 2 mps 725 mmHg 77%
    08:00 +4°C° 0 mm 2 mps 726 mmHg 73%
    09:00 +5°C° 0 mm 3 mps 726 mmHg 70%
    10:00 +7°C° 0 mm 3 mps 726 mmHg 66%
    11:00 +8°C° 0 mm 3 mps 726 mmHg 68%
    12:00 +8°C° 0 mm 4 mps 726 mmHg 70%
    13:00 +8°C° 0 mm 4 mps 727 mmHg 72%
    14:00 +9°C° 0.1 mm 3 mps 726 mmHg 75%
    15:00 +8°C° 0.1 mm 3 mps 726 mmHg 78%
    16:00 +8°C° 0.1 mm 3 mps 726 mmHg 81%
    17:00 +7°C° 0 mm 2 mps 726 mmHg 85%
    18:00 +6°C° 0 mm 2 mps 727 mmHg 89%
    19:00 +6°C° 0 mm 1 mps 727 mmHg 92%
    20:00 +6°C° 0 mm 1 mps 727 mmHg 93%
    21:00 +5°C° 0 mm 1 mps 728 mmHg 93%
    22:00 +5°C° 0 mm 1 mps 728 mmHg 93%
    23:00 +4°C° 0 mm 1 mps 728 mmHg 93%

    20 February, Wednesday

    Time Temperature Precipitation Wind Pressure Humidity
    00:00 +4°C° 0 mm 1 mps 728 mmHg 93%
    01:00 +4°C° 0 mm 1 mps 728 mmHg 93%
    02:00 +4°C° 0 mm 1 mps 728 mmHg 93%
    03:00 +3°C° 0 mm 1 mps 728 mmHg 93%
    04:00 +3°C° 0 mm 1 mps 728 mmHg 92%
    05:00 +3°C° 0 mm 1 mps 728 mmHg 92%
    06:00 +3°C° 0 mm 1 mps 728 mmHg 92%
    07:00 +3°C° 0 mm 1 mps 728 mmHg 92%
    08:00 +4°C° 0 mm 1 mps 728 mmHg 87%
    09:00 +6°C° 0 mm 1 mps 729 mmHg 82%
    10:00 +7°C° 0 mm 1 mps 729 mmHg 78%
    11:00 +9°C° 0 mm 1 mps 729 mmHg 73%
    12:00 +10°C° 0 mm 1 mps 729 mmHg 67%
    13:00 +11°C° 0 mm 1 mps 729 mmHg 62%
    14:00 +11°C° 0 mm 1 mps 729 mmHg 63%
    15:00 +10°C° 0 mm 2 mps 729 mmHg 63%
    16:00 +10°C° 0 mm 2 mps 729 mmHg 64%
    17:00 +10°C° 0 mm 1 mps 729 mmHg 71%
    18:00 +8°C° 0 mm 1 mps 729 mmHg 77%
    19:00 +6°C° 0 mm 0 mps 729 mmHg 84%
    20:00 +6°C° 0 mm 1 mps 729 mmHg 85%
    21:00 +6°C° 0 mm 1 mps 730 mmHg 86%
    22:00 +6°C° 0 mm 1 mps 730 mmHg 86%
    23:00 +6°C° 0 mm 1 mps 730 mmHg 86%

    21 February, Thursday

    Time Temperature Precipitation Wind Pressure Humidity
    00:00 +4°C° 0 mm 2 mps 730 mmHg 86%
    01:00 +4°C° 0 mm 2 mps 730 mmHg 86%
    02:00 +5°C° 0 mm 1 mps 730 mmHg 86%
    03:00 +5°C° 0 mm 1 mps 730 mmHg 86%
    04:00 +5°C° 0 mm 1 mps 730 mmHg 86%
    05:00 +5°C° 0 mm 1 mps 730 mmHg 87%
    06:00 +5°C° 0 mm 1 mps 730 mmHg 88%
    07:00 +5°C° 0 mm 1 mps 730 mmHg 88%
    08:00 +6°C° 0 mm 1 mps 731 mmHg 84%
    09:00 +7°C° 0 mm 1 mps 731 mmHg 79%
    10:00 +9°C° 0 mm 1 mps 731 mmHg 75%
    11:00 +9°C° 0 mm 2 mps 731 mmHg 71%
    12:00 +10°C° 0 mm 2 mps 731 mmHg 67%
    13:00 +12°C° 0 mm 2 mps 731 mmHg 64%
    14:00 +12°C° 0 mm 2 mps 731 mmHg 64%
    15:00 +12°C° 0 mm 2 mps 731 mmHg 64%
    16:00 +12°C° 0 mm 2 mps 731 mmHg 65%
    17:00 +10°C° 0 mm 2 mps 731 mmHg 72%
    18:00 +9°C° 0 mm 1 mps 731 mmHg 79%
    19:00 +8°C° 0 mm 1 mps 732 mmHg 87%
    20:00 +7°C° 0 mm 1 mps 732 mmHg 88%
    21:00 +7°C° 0 mm 1 mps 732 mmHg 89%
    22:00 +7°C° 0 mm 1 mps 733 mmHg 91%
    23:00 +6°C° 0 mm 1 mps 733 mmHg 91%

    22 February, Friday

    Time Temperature Precipitation Wind Pressure Humidity
    00:00 +6°C° 0 mm 1 mps 733 mmHg 92%
    01:00 +6°C° 0 mm 1 mps 733 mmHg 92%
    02:00 +6°C° 0 mm 1 mps 733 mmHg 92%
    03:00 +5°C° 0 mm 1 mps 733 mmHg 93%
    04:00 +5°C° 0 mm 1 mps 733 mmHg 93%
    05:00 +5°C° 0 mm 1 mps 733 mmHg 92%
    06:00 +6°C° 0 mm 1 mps 733 mmHg 92%
    07:00 +6°C° 0 mm 1 mps 734 mmHg 91%
    08:00 +7°C° 0 mm 1 mps 734 mmHg 87%
    09:00 +8°C° 0 mm 1 mps 734 mmHg 84%
    10:00 +8°C° 0 mm 0 mps 735 mmHg 80%
    11:00 +10°C° 0 mm 1 mps 735 mmHg 81%
    12:00 +10°C° 0 mm 1 mps 735 mmHg 81%
    13:00 +10°C° 0 mm 1 mps 735 mmHg 81%
    14:00 +11°C° 0 mm 1 mps 734 mmHg 81%
    15:00 +11°C° 0 mm 1 mps 734 mmHg 82%
    16:00 +11°C° 0 mm 1 mps 734 mmHg 82%
    17:00 +10°C° 0 mm 1 mps 734 mmHg 86%
    18:00 +10°C° 0 mm 1 mps 734 mmHg 90%
    19:00 +9°C° 0 mm 1 mps 735 mmHg 93%
    20:00 +9°C° 0.1 mm 1 mps 735 mmHg 94%
    21:00 +8°C° 0.1 mm 1 mps 735 mmHg 94%
    22:00 +8°C° 0.1 mm 1 mps 735 mmHg 95%
    23:00 +7°C° 0 mm 1 mps 735 mmHg 95%
    Show more